DECAYED

STARLINK-30314, 57674 (Decayed)

Orbit data source: Space-Track

STARLINK-30314, 57674 was a payload satellite owned by SpaceX/Seattle (US) in LEO that was launched on Tue, 22 Aug 2023 UTC via an FALCON 9 launch vehicle from the Air Force Western Test Range (AFWTR). Payload-class satellites include a variety of spacecraft equipped with specific instruments for various scientific and technological missions. These include communications satellites like Starlink; space stations such as the ISS; scientific satellites like the Hubble; Earth observation satellites from companies like Planet Labs, Umbra, and HawkEye 360; GPS; miniature CubeSats for education and research; and military/defense satellites.

Not visible in the next 10 days
Identifier
57674, 2023-124M
Orbit
Decayed
Country
Flag of USUS
Related business
Manufacturer
SpaceX/Seattle
Mission
Decayed Commercial Communications
Bus & Motor
STARLINK V2M, Unknown motor
Mass
730 kg wet, ~700 kg dry
Launch date (UTC)
2023-08-22 (3 years ago)
Launch vehicle
FALCON 9
Launch site
Air Force Western Test Range (AFWTR)
Object type
Payload
Rocket body
Debris
Shape & HBR
Box + 2 Pan, 17.7 m
Radar Cross Section
33.884 m², Large (>1 m²)

Expand to show TLE details & history
Last TLE update: 1 year ago

TLE from 1 year ago
0 STARLINK-30314
1 57674U 23124M   25061.44286963  .11883599  12422-4  81421-3 0  9995
2 57674  53.1303 100.2344 0003294 347.4692 148.2790 16.40512418 86707
Epoch: 2025-03-02T10:37Z
TLE epoch observation values (Epoch: 2025-03-02T10:37:43.936Z)
Latitude
34.03562°
Longitude
-69.91477°
Altitude
168.663 km
Speed
7.809 km/s
True Right ascension
16h 39m 58s
True Declination
33° 51' 43"
Sunlit
Object was in daylight at epoch
Visualization orbit readout
Latitude
Unknown
Longitude
Unknown
Altitude
Unknown
Speed
Unknown
Apparent Right ascension
Unknown
Apparent Declination
Unknown
Sunlit
N/A
Visualization observer readout
Local Sidereal Time
21:30:53
Azimuth
Unknown
Elevation
Unknown
Doppler factor
Unknown
Orbital elements
Apogee altitude
166.868 km
Perigee altitude
162.558 km
Semi-major axis
6,542.85 km
Eccentricity
0.00033
Inclination
53.1303°
RAAN
100.2344°
Arg. of periapsis
347.4692°
True anomaly
148.29884°
Mean anomaly
148.279°
Eccentric anomaly
148.28892°
Mean motion
4.10103 °/min
Orbital period
87.78 mins
BSTAR
0.00081421
Loading maneuver chart data...
Computing Atmospheric mass density...
Loading historical data...
Loading historical data...
Loading historical data...
Loading historical data...
Loading historical data...
Loading historical data...
Loading historical data...

Documentation

Showing up to 5 results
|